User: anonymous   Login
Location: Unspecified
(0.0000°N, 0.0000°E)
Time: 17:18:54
(UTC+00:00)
Language:

CANX 3A (UNIBRITE) - Orbit

View from above orbital plane
View from above orbital plane
View from above satellite
View from above satellite

Ground track
Ground track

The orbit data is extracted from the following two-line orbital elements,

1 39092U 13009G   14353.85231323  .00000391  00000-0  15365-3 0  5597
2 39092 098.6095 187.8511 0010540 116.6596 243.5670 14.34667433 94941
Epoch (UTC): 19 December 2014 20:27:19
Eccentricity: 0.0010540
inclination: 98.6095°
perigee height: 768 km
apogee height: 784 km
right ascension of ascending node: 187.8511°
argument of perigee: 116.6596°
revolutions per day: 14.34667433
mean anomaly at epoch: 243.5670°
orbit number at epoch: 9494

The dashed part of the orbit path shows where the satellite is in the earth's shadow,  

DLR